| time (UTC) | temp F | wind direction | speed MPH | gust MPH | rain 1hr in | rain 24hr in | rain mn in | humidity % | barometer mb |
| 20260506234504 | 70 | 319 | 0.0 | 2.0 | 0.00 | 0.00 | 0.00 | 47 | 1018.2 |
| 20260506234003 | 72 | 313 | 1.0 | 5.0 | 0.00 | 0.00 | 0.00 | 46 | 1018.2 |
| 20260506233504 | 73 | 319 | 0.0 | 3.0 | 0.00 | 0.00 | 0.00 | 43 | 1018.1 |
| 20260506232504 | 74 | 336 | 0.0 | 2.0 | 0.00 | 0.00 | 0.00 | 45 | 1018.0 |
| 20260506232004 | 73 | 338 | 0.0 | 1.0 | 0.00 | 0.00 | 0.00 | 47 | 1018.0 |
| 20260506231503 | 73 | 325 | 0.0 | 2.0 | 0.00 | 0.00 | 0.00 | 45 | 1018.1 |
| 20260506230503 | 72 | 337 | 0.0 | 5.0 | 0.00 | 0.00 | 0.00 | 44 | 1018.1 |
| 20260506230003 | 72 | 334 | 0.0 | 3.0 | 0.00 | 0.00 | 0.00 | 44 | 1018.2 |
| 20260506225504 | 71 | 337 | 1.0 | 5.0 | 0.00 | 0.00 | 0.00 | 46 | 1018.2 |
| 20260506224503 | 71 | 339 | 1.0 | 6.0 | 0.00 | 0.00 | 0.00 | 46 | 1018.4 |
| 20260506224004 | 71 | 341 | 0.0 | 2.0 | 0.00 | 0.00 | 0.00 | 47 | 1018.5 |
| 20260506223504 | 71 | 337 | 0.0 | 6.0 | 0.00 | 0.00 | 0.00 | 46 | 1018.6 |
| 20260506223004 | 71 | 329 | 0.0 | 2.0 | 0.00 | 0.00 | 0.00 | 45 | 1018.6 |
| 20260506222503 | 71 | 352 | 0.0 | 5.0 | 0.00 | 0.00 | 0.00 | 46 | 1018.7 |
| 20260506222004 | 72 | 340 | 1.0 | 8.0 | 0.00 | 0.00 | 0.00 | 42 | 1018.7 |
| 20260506221504 | 73 | 347 | 1.0 | 10.0 | 0.00 | 0.00 | 0.00 | 42 | 1018.7 |
| 20260506221004 | 74 | 332 | 0.0 | 3.0 | 0.00 | 0.00 | 0.00 | 41 | 1018.8 |
| 20260506220503 | 75 | 336 | 0.0 | 3.0 | 0.00 | 0.00 | 0.00 | 41 | 1018.7 |
| 20260506220004 | 75 | 343 | 1.0 | 8.0 | 0.00 | 0.00 | 0.00 | 40 | 1018.7 |
| 20260506215503 | 75 | 340 | 0.0 | 2.0 | 0.00 | 0.00 | 0.00 | 40 | 1018.8 |
| 20260506215004 | 75 | 0 | 1.0 | 5.0 | 0.00 | 0.00 | 0.00 | 41 | 1018.8 |
| 20260506214504 | 75 | 336 | 1.0 | 10.0 | 0.00 | 0.00 | 0.00 | 38 | 1018.8 |
| 20260506214004 | 76 | 348 | 0.0 | 3.0 | 0.00 | 0.00 | 0.00 | 40 | 1018.8 |
| 20260506213504 | 75 | 336 | 0.0 | 3.0 | 0.00 | 0.00 | 0.00 | 39 | 1018.9 |
| 20260506213004 | 75 | 336 | 0.0 | 2.0 | 0.00 | 0.00 | 0.00 | 40 | 1019.0 |
| 20260506212004 | 74 | 351 | 1.0 | 3.0 | 0.00 | 0.00 | 0.00 | 39 | 1018.9 |
| 20260506211503 | 74 | 341 | 1.0 | 3.0 | 0.00 | 0.00 | 0.00 | 40 | 1018.9 |
| 20260506211003 | 74 | 332 | 1.0 | 5.0 | 0.00 | 0.00 | 0.00 | 40 | 1018.9 |
| 20260506210503 | 74 | 339 | 0.0 | 8.0 | 0.00 | 0.00 | 0.00 | 40 | 1018.9 |
| 20260506210004 | 75 | 334 | 0.0 | 5.0 | 0.00 | 0.00 | 0.00 | 40 | 1019.0 |
| 20260506205004 | 74 | 311 | 0.0 | 3.0 | 0.00 | 0.00 | 0.00 | 41 | 1019.1 |
| 20260506204503 | 75 | 334 | 1.0 | 5.0 | 0.00 | 0.00 | 0.00 | 40 | 1019.1 |
| 20260506203504 | 74 | 334 | 0.0 | 3.0 | 0.00 | 0.00 | 0.00 | 42 | 1019.2 |
| 20260506203003 | 74 | 349 | 0.0 | 5.0 | 0.00 | 0.00 | 0.00 | 41 | 1019.1 |
| 20260506202504 | 75 | 352 | 0.0 | 2.0 | 0.00 | 0.00 | 0.00 | 42 | 1019.3 |
| 20260506202003 | 75 | 347 | 0.0 | 3.0 | 0.00 | 0.00 | 0.00 | 43 | 1019.2 |
| 20260506201503 | 74 | 328 | 0.0 | 2.0 | 0.00 | 0.00 | 0.00 | 42 | 1019.2 |
| 20260506201004 | 74 | 336 | 0.0 | 1.0 | 0.00 | 0.00 | 0.00 | 41 | 1019.2 |
| 20260506200504 | 75 | 331 | 1.0 | 6.0 | 0.00 | 0.00 | 0.00 | 39 | 1019.1 |
| 20260506195504 | 75 | 2 | 1.0 | 13.0 | 0.00 | 0.00 | 0.00 | 42 | 1019.2 |
| 20260506195004 | 75 | 354 | 0.0 | 6.0 | 0.00 | 0.00 | 0.00 | 40 | 1019.2 |
| 20260506194504 | 74 | 19 | 1.0 | 6.0 | 0.00 | 0.00 | 0.00 | 39 | 1019.3 |
| 20260506193504 | 75 | 354 | 0.0 | 6.0 | 0.00 | 0.00 | 0.00 | 37 | 1019.4 |
| 20260506192504 | 74 | 21 | 0.0 | 0.0 | 0.00 | 0.00 | 0.00 | 38 | 1019.5 |
| 20260506192003 | 75 | 349 | 1.0 | 5.0 | 0.00 | 0.00 | 0.00 | 39 | 1019.6 |
| 20260506191503 | 74 | 341 | 0.0 | 2.0 | 0.00 | 0.00 | 0.00 | 38 | 1019.5 |
| 20260506191004 | 75 | 343 | 0.0 | 8.0 | 0.00 | 0.00 | 0.00 | 36 | 1019.5 |
| 20260506190004 | 75 | 353 | 0.0 | 2.0 | 0.00 | 0.00 | 0.00 | 39 | 1019.6 |
| 20260506185503 | 74 | 8 | 0.0 | 1.0 | 0.00 | 0.00 | 0.00 | 41 | 1019.6 |
| 20260506185004 | 73 | 356 | 0.0 | 1.0 | 0.00 | 0.00 | 0.00 | 44 | 1019.5 |
| 20260506184504 | 73 | 6 | 0.0 | 1.0 | 0.00 | 0.00 | 0.00 | 45 | 1019.6 |
| 20260506183503 | 72 | 33 | 0.0 | 1.0 | 0.00 | 0.00 | 0.00 | 44 | 1019.8 |
| 20260506183004 | 72 | 28 | 0.0 | 1.0 | 0.00 | 0.00 | 0.00 | 42 | 1019.8 |
| 20260506182503 | 72 | 14 | 0.0 | 3.0 | 0.00 | 0.00 | 0.00 | 44 | 1019.7 |
| 20260506182004 | 73 | 38 | 0.0 | 2.0 | 0.00 | 0.00 | 0.00 | 42 | 1019.7 |
| 20260506181503 | 72 | 29 | 0.0 | 1.0 | 0.00 | 0.00 | 0.00 | 44 | 1019.7 |
| 20260506180504 | 73 | 348 | 0.0 | 0.0 | 0.00 | 0.00 | 0.00 | 42 | 1019.7 |
| 20260506180004 | 72 | 11 | 0.0 | 1.0 | 0.00 | 0.00 | 0.00 | 45 | 1019.7 |
| 20260506175004 | 72 | 27 | 0.0 | 1.0 | 0.00 | 0.00 | 0.00 | 44 | 1019.5 |
| 20260506174504 | 72 | 34 | 0.0 | 0.0 | 0.00 | 0.00 | 0.00 | 41 | 1019.5 |
| 20260506174003 | 72 | 25 | 0.0 | 1.0 | 0.00 | 0.00 | 0.00 | 41 | 1019.5 |
| 20260506173503 | 72 | 345 | 0.0 | 0.0 | 0.00 | 0.00 | 0.00 | 43 | 1019.5 |
| 20260506172504 | 72 | 336 | 0.0 | 1.0 | 0.00 | 0.00 | 0.00 | 42 | 1019.4 |
| 20260506171503 | 71 | 44 | 0.0 | 0.0 | 0.00 | 0.00 | 0.00 | 44 | 1019.5 |
| 20260506171004 | 70 | 355 | 0.0 | 0.0 | 0.00 | 0.00 | 0.00 | 40 | 1019.5 |
| 20260506170504 | 70 | 355 | 0.0 | 0.0 | 0.00 | 0.00 | 0.00 | 40 | 1019.5 |
| 20260506170004 | 69 | 333 | 0.0 | 0.0 | 0.00 | 0.00 | 0.00 | 40 | 1019.4 |
| 20260506165503 | 69 | 324 | 0.0 | 0.0 | 0.00 | 0.00 | 0.00 | 40 | 1019.4 |
| 20260506165004 | 69 | 254 | 0.0 | 0.0 | 0.00 | 0.00 | 0.00 | 41 | 1019.4 |
| 20260506164504 | 68 | 250 | 0.0 | 0.0 | 0.00 | 0.00 | 0.00 | 41 | 1019.4 |
| 20260506164004 | 67 | 250 | 0.0 | 0.0 | 0.00 | 0.00 | 0.00 | 42 | 1019.5 |
| 20260506163504 | 68 | 344 | 0.0 | 0.0 | 0.00 | 0.00 | 0.00 | 40 | 1019.6 |
| 20260506162503 | 65 | 280 | 0.0 | 0.0 | 0.00 | 0.00 | 0.00 | 43 | 1019.6 |
| 20260506162004 | 65 | 196 | 0.0 | 0.0 | 0.00 | 0.00 | 0.00 | 43 | 1019.6 |
| 20260506161504 | 65 | 210 | 0.0 | 0.0 | 0.00 | 0.00 | 0.00 | 44 | 1019.6 |
| 20260506161004 | 65 | 173 | 0.0 | 2.0 | 0.00 | 0.00 | 0.00 | 43 | 1019.6 |
| 20260506160504 | 65 | 223 | 0.0 | 0.0 | 0.00 | 0.00 | 0.00 | 44 | 1019.6 |
| 20260506160004 | 64 | 231 | 0.0 | 0.0 | 0.00 | 0.00 | 0.00 | 43 | 1019.7 |
| 20260506155004 | 64 | 228 | 0.0 | 0.0 | 0.00 | 0.00 | 0.00 | 43 | 1019.7 |
| 20260506154504 | 64 | 256 | 0.0 | 0.0 | 0.00 | 0.00 | 0.00 | 42 | 1019.7 |
| 20260506154004 | 64 | 232 | 0.0 | 1.0 | 0.00 | 0.00 | 0.00 | 43 | 1019.8 |
| 20260506153504 | 63 | 226 | 0.0 | 1.0 | 0.00 | 0.00 | 0.00 | 43 | 1019.7 |
| 20260506153005 | 63 | 219 | 0.0 | 0.0 | 0.00 | 0.00 | 0.00 | 43 | 1019.7 |
| 20260506152504 | 62 | 228 | 0.0 | 1.0 | 0.00 | 0.00 | 0.00 | 44 | 1019.7 |
| 20260506152004 | 62 | 217 | 1.0 | 3.0 | 0.00 | 0.00 | 0.00 | 44 | 1019.7 |
| 20260506151004 | 61 | 225 | 0.0 | 2.0 | 0.00 | 0.00 | 0.00 | 45 | 1019.7 |
| 20260506150505 | 61 | 235 | 1.0 | 2.0 | 0.00 | 0.00 | 0.00 | 45 | 1019.7 |
| 20260506150005 | 60 | 224 | 1.0 | 3.0 | 0.00 | 0.00 | 0.00 | 44 | 1019.8 |
| 20260506145505 | 60 | 229 | 1.0 | 6.0 | 0.00 | 0.00 | 0.00 | 44 | 1019.7 |
| 20260506144504 | 59 | 237 | 0.0 | 3.0 | 0.00 | 0.00 | 0.00 | 47 | 1019.7 |
| 20260506143504 | 58 | 232 | 0.0 | 3.0 | 0.00 | 0.00 | 0.00 | 49 | 1019.7 |
| 20260506143004 | 58 | 239 | 1.0 | 3.0 | 0.00 | 0.00 | 0.00 | 49 | 1019.7 |
| 20260506142504 | 57 | 238 | 0.0 | 3.0 | 0.00 | 0.00 | 0.00 | 51 | 1019.7 |
| 20260506142004 | 57 | 229 | 0.0 | 3.0 | 0.00 | 0.00 | 0.00 | 51 | 1019.7 |
| 20260506141504 | 57 | 228 | 1.0 | 2.0 | 0.00 | 0.00 | 0.00 | 52 | 1019.7 |
| 20260506140504 | 56 | 239 | 0.0 | 2.0 | 0.00 | 0.00 | 0.00 | 53 | 1019.7 |
| 20260506140005 | 55 | 229 | 0.0 | 2.0 | 0.00 | 0.00 | 0.00 | 54 | 1019.7 |
| 20260506135505 | 55 | 239 | 0.0 | 2.0 | 0.00 | 0.00 | 0.00 | 54 | 1019.7 |
| 20260506134504 | 55 | 227 | 1.0 | 3.0 | 0.00 | 0.00 | 0.00 | 54 | 1019.7 |
| 20260506134004 | 54 | 225 | 1.0 | 3.0 | 0.00 | 0.00 | 0.00 | 55 | 1019.7 |
| 20260506133504 | 54 | 228 | 1.0 | 2.0 | 0.00 | 0.00 | 0.00 | 55 | 1019.6 |
| 20260506133004 | 53 | 236 | 0.0 | 3.0 | 0.00 | 0.00 | 0.00 | 56 | 1019.5 |
| 20260506132504 | 53 | 242 | 0.0 | 2.0 | 0.00 | 0.00 | 0.00 | 57 | 1019.5 |
| 20260506132005 | 52 | 241 | 0.0 | 2.0 | 0.00 | 0.00 | 0.00 | 58 | 1019.5 |
| 20260506131504 | 52 | 238 | 1.0 | 5.0 | 0.00 | 0.00 | 0.00 | 58 | 1019.4 |
| 20260506131004 | 52 | 236 | 0.0 | 3.0 | 0.00 | 0.00 | 0.00 | 59 | 1019.4 |
| 20260506130504 | 51 | 222 | 0.0 | 3.0 | 0.00 | 0.00 | 0.00 | 60 | 1019.3 |
| 20260506130005 | 50 | 230 | 0.0 | 2.0 | 0.00 | 0.00 | 0.00 | 62 | 1019.3 |
| 20260506125503 | 50 | 227 | 0.0 | 0.0 | 0.00 | 0.00 | 0.00 | 62 | 1019.3 |
| 20260506125004 | 50 | 212 | 0.0 | 1.0 | 0.00 | 0.00 | 0.00 | 61 | 1019.2 |
| 20260506124503 | 50 | 221 | 0.0 | 0.0 | 0.00 | 0.00 | 0.00 | 60 | 1019.3 |
| 20260506124004 | 50 | 213 | 0.0 | 0.0 | 0.00 | 0.00 | 0.00 | 61 | 1019.2 |
| 20260506123504 | 48 | 232 | 0.0 | 0.0 | 0.00 | 0.00 | 0.00 | 64 | 1019.2 |
| 20260506123004 | 47 | 173 | 0.0 | 0.0 | 0.00 | 0.00 | 0.00 | 65 | 1019.2 |
| 20260506122503 | 47 | 172 | 0.0 | 0.0 | 0.00 | 0.00 | 0.00 | 66 | 1019.2 |
| 20260506122004 | 47 | 173 | 0.0 | 0.0 | 0.00 | 0.00 | 0.00 | 66 | 1019.2 |
| 20260506121504 | 46 | 173 | 0.0 | 0.0 | 0.00 | 0.00 | 0.00 | 66 | 1019.2 |
| 20260506120504 | 47 | 173 | 0.0 | 0.0 | 0.00 | 0.00 | 0.00 | 65 | 1019.1 |
| 20260506120004 | 46 | 173 | 0.0 | 0.0 | 0.00 | 0.00 | 0.00 | 65 | 1019.2 |
| 20260506115504 | 47 | 172 | 0.0 | 0.0 | 0.00 | 0.00 | 0.00 | 64 | 1019.1 |
| 20260506115004 | 47 | 172 | 0.0 | 0.0 | 0.00 | 0.00 | 0.00 | 64 | 1019.1 |
| 20260506114505 | 47 | 173 | 0.0 | 0.0 | 0.00 | 0.00 | 0.00 | 64 | 1019.1 |
| 20260506114004 | 46 | 173 | 0.0 | 0.0 | 0.00 | 0.00 | 0.00 | 65 | 1019.1 |
| 20260506113504 | 46 | 174 | 0.0 | 0.0 | 0.00 | 0.00 | 0.00 | 65 | 1019.2 |
| 20260506113004 | 46 | 173 | 0.0 | 0.0 | 0.00 | 0.00 | 0.00 | 66 | 1019.2 |
| 20260506112005 | 45 | 175 | 0.0 | 0.0 | 0.00 | 0.00 | 0.00 | 67 | 1019.2 |
| 20260506111504 | 44 | 174 | 0.0 | 0.0 | 0.00 | 0.00 | 0.00 | 68 | 1019.2 |
| 20260506111004 | 44 | 174 | 0.0 | 0.0 | 0.00 | 0.00 | 0.00 | 68 | 1019.2 |
| 20260506110504 | 43 | 168 | 0.0 | 0.0 | 0.00 | 0.00 | 0.00 | 70 | 1019.1 |
| 20260506110004 | 43 | 167 | 0.0 | 0.0 | 0.00 | 0.00 | 0.00 | 71 | 1019.1 |
| 20260506105504 | 43 | 167 | 0.0 | 0.0 | 0.00 | 0.00 | 0.00 | 70 | 1019.1 |
| 20260506105004 | 43 | 170 | 0.0 | 0.0 | 0.00 | 0.00 | 0.00 | 71 | 1019.2 |
| 20260506104503 | 43 | 180 | 0.0 | 0.0 | 0.00 | 0.00 | 0.00 | 69 | 1019.1 |
| 20260506104004 | 44 | 180 | 0.0 | 0.0 | 0.00 | 0.00 | 0.00 | 68 | 1019.1 |
| 20260506103504 | 44 | 193 | 0.0 | 0.0 | 0.00 | 0.00 | 0.00 | 66 | 1019.1 |
| 20260506103004 | 45 | 194 | 0.0 | 0.0 | 0.00 | 0.00 | 0.00 | 65 | 1019.1 |
| 20260506102004 | 44 | 194 | 0.0 | 0.0 | 0.00 | 0.00 | 0.00 | 66 | 1019.0 |
| 20260506101504 | 45 | 194 | 0.0 | 0.0 | 0.00 | 0.00 | 0.00 | 65 | 1018.9 |
| 20260506101004 | 45 | 194 | 0.0 | 0.0 | 0.00 | 0.00 | 0.00 | 63 | 1018.9 |
| 20260506100005 | 47 | 194 | 0.0 | 0.0 | 0.00 | 0.00 | 0.00 | 60 | 1019.0 |
| 20260506095503 | 47 | 194 | 0.0 | 0.0 | 0.00 | 0.00 | 0.00 | 60 | 1019.0 |
| 20260506095003 | 46 | 194 | 0.0 | 0.0 | 0.00 | 0.00 | 0.00 | 61 | 1019.0 |
| 20260506094504 | 45 | 194 | 0.0 | 0.0 | 0.00 | 0.00 | 0.00 | 63 | 1019.0 |
| 20260506094004 | 45 | 194 | 0.0 | 0.0 | 0.00 | 0.00 | 0.00 | 64 | 1019.0 |
| 20260506093504 | 45 | 194 | 0.0 | 0.0 | 0.00 | 0.00 | 0.00 | 64 | 1019.0 |
| 20260506093005 | 45 | 194 | 0.0 | 0.0 | 0.00 | 0.00 | 0.00 | 64 | 1019.0 |
| 20260506092504 | 45 | 194 | 0.0 | 0.0 | 0.00 | 0.00 | 0.00 | 65 | 1018.9 |
| 20260506092004 | 46 | 212 | 0.0 | 0.0 | 0.00 | 0.00 | 0.00 | 62 | 1018.9 |
| 20260506091504 | 48 | 261 | 0.0 | 0.0 | 0.00 | 0.00 | 0.00 | 58 | 1018.9 |
| 20260506091004 | 49 | 261 | 0.0 | 0.0 | 0.00 | 0.00 | 0.00 | 56 | 1018.9 |
| 20260506090504 | 49 | 261 | 0.0 | 0.0 | 0.00 | 0.00 | 0.00 | 55 | 1018.9 |
| 20260506090004 | 51 | 261 | 0.0 | 0.0 | 0.00 | 0.00 | 0.00 | 52 | 1018.9 |
| 20260506085504 | 52 | 261 | 0.0 | 0.0 | 0.00 | 0.00 | 0.00 | 50 | 1019.0 |
| 20260506085004 | 52 | 261 | 0.0 | 0.0 | 0.00 | 0.00 | 0.00 | 48 | 1019.0 |
| 20260506084504 | 52 | 261 | 0.0 | 0.0 | 0.00 | 0.00 | 0.00 | 49 | 1019.0 |
| 20260506084004 | 51 | 261 | 0.0 | 0.0 | 0.00 | 0.00 | 0.00 | 50 | 1018.9 |
| 20260506083504 | 51 | 261 | 0.0 | 0.0 | 0.00 | 0.00 | 0.00 | 52 | 1018.9 |
| 20260506083004 | 51 | 261 | 0.0 | 0.0 | 0.00 | 0.00 | 0.00 | 51 | 1018.9 |
| 20260506082504 | 51 | 261 | 0.0 | 0.0 | 0.00 | 0.00 | 0.00 | 51 | 1018.9 |
| 20260506082005 | 50 | 261 | 0.0 | 0.0 | 0.00 | 0.00 | 0.00 | 53 | 1018.8 |
| 20260506081504 | 50 | 261 | 0.0 | 0.0 | 0.00 | 0.00 | 0.00 | 54 | 1018.8 |
| 20260506081005 | 53 | 261 | 0.0 | 0.0 | 0.00 | 0.00 | 0.00 | 51 | 1018.8 |
| 20260506080504 | 54 | 259 | 0.0 | 0.0 | 0.00 | 0.00 | 0.00 | 45 | 1018.7 |
| 20260506073504 | 52 | 259 | 0.0 | 0.0 | 0.00 | 0.00 | 0.00 | 52 | 1018.8 |
| 20260506073004 | 51 | 259 | 0.0 | 0.0 | 0.00 | 0.00 | 0.00 | 52 | 1018.7 |
| 20260506072505 | 51 | 259 | 0.0 | 0.0 | 0.00 | 0.00 | 0.00 | 53 | 1018.8 |
| 20260506072003 | 51 | 259 | 0.0 | 0.0 | 0.00 | 0.00 | 0.00 | 52 | 1018.7 |
| 20260506071504 | 52 | 259 | 0.0 | 0.0 | 0.00 | 0.00 | 0.00 | 52 | 1018.7 |
| 20260506071004 | 52 | 259 | 0.0 | 0.0 | 0.00 | 0.00 | 0.00 | 51 | 1018.7 |
| 20260506070504 | 53 | 259 | 0.0 | 0.0 | 0.00 | 0.00 | 0.00 | 50 | 1018.6 |
| 20260506062004 | 56 | 282 | 0.0 | 0.0 | 0.00 | 0.00 | 0.00 | 43 | 1018.1 |
| 20260506061504 | 56 | 281 | 0.0 | 0.0 | 0.00 | 0.00 | 0.00 | 44 | 1018.1 |
| 20260506061004 | 56 | 281 | 0.0 | 0.0 | 0.00 | 0.00 | 0.00 | 43 | 1018.1 |
| 20260506060504 | 56 | 281 | 0.0 | 0.0 | 0.00 | 0.00 | 0.00 | 44 | 1018.1 |
| 20260506051004 | 55 | 279 | 0.0 | 0.0 | 0.00 | 0.00 | 0.00 | 49 | 1018.2 |
| 20260506050504 | 55 | 277 | 0.0 | 0.0 | 0.00 | 0.00 | 0.00 | 50 | 1018.2 |
| 20260506045004 | 54 | 273 | 0.0 | 0.0 | 0.00 | 0.00 | 0.00 | 52 | 1018.1 |
| 20260506044004 | 55 | 274 | 0.0 | 0.0 | 0.00 | 0.00 | 0.00 | 51 | 1018.0 |
| 20260506043505 | 55 | 273 | 0.0 | 0.0 | 0.00 | 0.00 | 0.00 | 51 | 1018.0 |
| 20260506043004 | 55 | 300 | 0.0 | 0.0 | 0.00 | 0.00 | 0.00 | 50 | 1018.0 |
| 20260506042505 | 55 | 300 | 0.0 | 0.0 | 0.00 | 0.00 | 0.00 | 50 | 1017.9 |
| 20260506042004 | 55 | 300 | 0.0 | 0.0 | 0.00 | 0.00 | 0.00 | 51 | 1017.8 |
| 20260506041504 | 54 | 300 | 0.0 | 0.0 | 0.00 | 0.00 | 0.00 | 52 | 1017.8 |
| 20260506041004 | 54 | 300 | 0.0 | 0.0 | 0.00 | 0.00 | 0.00 | 54 | 1017.8 |
| 20260506040504 | 54 | 299 | 0.0 | 0.0 | 0.00 | 0.00 | 0.00 | 54 | 1017.8 |
| 20260506040004 | 54 | 313 | 0.0 | 0.0 | 0.00 | 0.00 | 0.00 | 54 | 1017.7 |
| 20260506035504 | 55 | 315 | 0.0 | 0.0 | 0.00 | 0.00 | 0.00 | 53 | 1017.7 |
| 20260506034505 | 55 | 315 | 0.0 | 0.0 | 0.00 | 0.00 | 0.00 | 54 | 1017.6 |
| 20260506034004 | 56 | 315 | 0.0 | 0.0 | 0.00 | 0.00 | 0.00 | 52 | 1017.6 |
| 20260506033005 | 56 | 317 | 0.0 | 0.0 | 0.00 | 0.00 | 0.00 | 50 | 1017.5 |
| 20260506032004 | 55 | 308 | 0.0 | 0.0 | 0.00 | 0.00 | 0.00 | 53 | 1017.3 |
| 20260506031504 | 55 | 312 | 0.0 | 0.0 | 0.00 | 0.00 | 0.00 | 54 | 1017.3 |
| 20260506031004 | 55 | 308 | 0.0 | 0.0 | 0.00 | 0.00 | 0.00 | 55 | 1017.2 |
| 20260506030504 | 56 | 334 | 0.0 | 0.0 | 0.00 | 0.00 | 0.00 | 55 | 1017.2 |
| 20260506030004 | 57 | 337 | 0.0 | 0.0 | 0.00 | 0.00 | 0.00 | 53 | 1017.1 |
| 20260506025504 | 58 | 355 | 0.0 | 1.0 | 0.00 | 0.00 | 0.00 | 50 | 1017.1 |
| 20260506025004 | 59 | 345 | 0.0 | 0.0 | 0.00 | 0.00 | 0.00 | 48 | 1017.0 |
| 20260506024504 | 60 | 343 | 0.0 | 0.0 | 0.00 | 0.00 | 0.00 | 47 | 1017.0 |
| 20260506024005 | 60 | 339 | 0.0 | 0.0 | 0.00 | 0.00 | 0.00 | 46 | 1017.0 |
| 20260506023504 | 61 | 344 | 0.0 | 0.0 | 0.00 | 0.00 | 0.00 | 45 | 1016.9 |
| 20260506023003 | 62 | 338 | 0.0 | 0.0 | 0.00 | 0.00 | 0.00 | 44 | 1016.9 |
| 20260506022504 | 62 | 340 | 0.0 | 0.0 | 0.00 | 0.00 | 0.00 | 43 | 1016.8 |
| 20260506022004 | 63 | 342 | 0.0 | 0.0 | 0.00 | 0.00 | 0.00 | 43 | 1016.8 |
| 20260506021004 | 64 | 332 | 0.0 | 0.0 | 0.00 | 0.00 | 0.00 | 42 | 1016.8 |
| 20260506020504 | 64 | 311 | 0.0 | 1.0 | 0.00 | 0.00 | 0.00 | 42 | 1016.8 |
| 20260506020004 | 64 | 330 | 0.0 | 1.0 | 0.00 | 0.00 | 0.00 | 42 | 1016.8 |
| 20260506015004 | 65 | 307 | 0.0 | 2.0 | 0.00 | 0.00 | 0.00 | 39 | 1016.7 |
| 20260506014504 | 66 | 305 | 0.0 | 2.0 | 0.00 | 0.00 | 0.00 | 39 | 1016.7 |
| 20260506014004 | 66 | 317 | 0.0 | 2.0 | 0.00 | 0.00 | 0.00 | 38 | 1016.6 |
| 20260506013004 | 67 | 340 | 0.0 | 3.0 | 0.00 | 0.00 | 0.00 | 37 | 1016.7 |
| 20260506012504 | 67 | 316 | 0.0 | 8.0 | 0.00 | 0.00 | 0.00 | 39 | 1016.7 |
| 20260506012004 | 67 | 333 | 0.0 | 3.0 | 0.00 | 0.00 | 0.00 | 37 | 1016.7 |
| 20260506011504 | 67 | 326 | 0.0 | 3.0 | 0.00 | 0.00 | 0.00 | 36 | 1016.7 |
| 20260506011004 | 67 | 333 | 1.0 | 8.0 | 0.00 | 0.00 | 0.00 | 35 | 1016.7 |
| 20260506010504 | 68 | 338 | 1.0 | 5.0 | 0.00 | 0.00 | 0.00 | 36 | 1016.7 |
| 20260506005503 | 68 | 333 | 1.0 | 8.0 | 0.00 | 0.00 | 0.00 | 35 | 1016.6 |
| 20260506005003 | 68 | 336 | 1.0 | 5.0 | 0.00 | 0.00 | 0.00 | 35 | 1016.6 |
| 20260506004004 | 68 | 326 | 0.0 | 2.0 | 0.00 | 0.00 | 0.00 | 37 | 1016.7 |
| 20260506003504 | 68 | 325 | 1.0 | 3.0 | 0.00 | 0.00 | 0.00 | 36 | 1016.7 |
| 20260506003003 | 69 | 326 | 2.0 | 8.0 | 0.00 | 0.00 | 0.00 | 35 | 1016.7 |
| 20260506002503 | 69 | 330 | 0.0 | 3.0 | 0.00 | 0.00 | 0.00 | 36 | 1016.7 |
| 20260506002003 | 69 | 332 | 1.0 | 9.0 | 0.00 | 0.00 | 0.00 | 34 | 1016.7 |
| 20260506001504 | 69 | 326 | 1.0 | 7.0 | 0.00 | 0.00 | 0.00 | 36 | 1016.7 |
| 20260506001004 | 70 | 321 | 1.0 | 5.0 | 0.00 | 0.00 | 0.00 | 35 | 1016.7 |
| 20260506000504 | 70 | 333 | 1.0 | 5.0 | 0.00 | 0.00 | 0.00 | 35 | 1016.7 |
| 20260506000004 | 71 | 328 | 1.0 | 6.0 | 0.00 | 0.00 | 0.00 | 36 | 1016.7 |
| 20260505235503 | 71 | 318 | 1.0 | 3.0 | 0.00 | 0.00 | 0.00 | 37 | 1016.7 |
| 20260505235003 | 70 | 311 | 1.0 | 5.0 | 0.00 | 0.00 | 0.00 | 37 | 1016.7 |